Notices

What's New in latest Release from April 7th, 2021:

- Updated Glossary, including Speed of Maximum Gust, and Total Hourly Precipitation

- Updated national and regional climate services offices contacts and prices information

- Addition of station inventory lists for 1981-2010, 1971-2000, and 1961-1990 Normals.

If you haven't already, please take our survey and provide feedback about our website: https://eccc.sondage-survey.ca/f/LanguageSelection.aspx?s=442ca660-fcf1-47c0-95a9-59707d6fd709

Hourly Data Report for August 10, 2015

IQALUIT CLIMATE
NUNAVUT

63°44'50.000" N
68°32'40.000" W
33.50 m
2402592
71321
XFB

Download Data

Hourly Data (August 2015)
Hourly Data Report for August 10, 2015
TIME
LST
Temp Definition
°C
Dew Point Definition
°C
Rel Hum Definition
%
Precip. Amount Definition
mm

Wind Dir Definition
10's deg

Wind Spd Definition
km/h
Visibility Definition
km
Stn Press Definition
kPa
Hmdx Definition


Wind Chill Definition


Weather Definition


00:00 4.6 1.7 81 0.0 32 12   101.00     LegendNANA
01:00 6.2 1.1 70 0.0 34 22   101.05     LegendNANA
02:00 5.3 2.2 80 0.0 32 20   101.08     LegendNANA
03:00 4.4 0.7 77 0.0 32 25   101.12     LegendNANA
04:00 3.7 -0.3 75 0.0 32 24   101.16     LegendNANA
05:00 3.1 0.7 84 0.0 31 15   101.17     LegendNANA
06:00 4.6 -0.6 69 0.0 34 21   101.17     LegendNANA
07:00 5.5 0.7 71 0.0 32 18   101.18     LegendNANA
08:00 5.0 0.3 72 0.0 32 18   101.17     LegendNANA
09:00 5.6 0.1 68 0.0 32 24   101.15     LegendNANA
10:00 6.3 -0.1 63 0.0 33 23   101.14     LegendNANA
11:00 6.9 -0.2 61 0.0 33 23   101.13     LegendNANA
12:00 7.6 0.4 60 0.0 34 21   101.09     LegendNANA
13:00 9.1 1.4 58 0.0 31 21   101.06     LegendNANA
14:00 8.9 1.5 60 0.0 31 22   101.05     LegendNANA
15:00 7.7 0.9 62 0.0 33 29   101.07     LegendNANA
16:00 7.8 1.3 64 0.0 33 23   101.06     LegendNANA
17:00 7.4 1.5 66 0.0 33 27   101.04     LegendNANA
18:00 7.4 0.7 62 0.0 34 25   101.05     LegendNANA
19:00 7.1 0.8 64 0.0 33 22   101.06     LegendNANA
20:00 6.6 0.9 67 0.0 34 19   101.08     LegendNANA
21:00 4.8 0.8 76 0.0 33 12   101.09     LegendNANA
22:00 3.7 1.3 84 0.0 33 16   101.10     LegendNANA
23:00 3.4 1.6 88 0.0 32 15   101.10     LegendNANA

Notes on Data Quality.

Legend

  • E = Estimated
  • M = Missing
  • NA = Not Available*
  • [empty] = Indicates an unobserved value
Date modified: